Simultaneous Nadir Overpasses (SNOs) Predictions

Prediction of SNOs between AQUA and METOP-B Satellite Orbit:

Table of predicted SNOs for the next 14.0 days since TLE Epoch: 1/15/2022
Index Date (AQUA) Time (AQUA) Lat,Lon (AQUA) SZA (AQUA ) Date (METOP-B) Time (METOP-B) Lat,Lon (METOP-B) SZA (METOP-B ) Distance(km) Time Diff (sec)
1 01/17/2022 01:18:42 -73.75, -25.19 85.42 01/17/2022 01:17:35 -73.75, -25.30 85.41 3.58 67
2 01/17/2022 02:08:11 73.85, 142.25 94.68 01/17/2022 02:08:13 73.84, 142.25 94.67 0.50 2
3 01/17/2022 02:57:39 -73.96, -50.36 85.21 01/17/2022 02:58:52 -73.97, -50.10 85.22 8.14 73
4 01/19/2022 20:52:57 -73.78, 41.21 85.96 01/19/2022 20:51:55 -73.78, 41.19 85.94 0.94 62
5 01/19/2022 21:42:26 73.87,-151.36 94.14 01/19/2022 21:42:33 73.87,-151.27 94.13 2.87 7
6 01/19/2022 22:31:58 -74.19, 15.56 85.53 01/19/2022 22:33:08 -74.20, 16.88 85.58 39.93 70
7 01/22/2022 16:27:12 -73.82, 107.57 86.54 01/22/2022 16:26:15 -73.81, 107.67 86.54 3.07 57
8 01/22/2022 17:16:40 73.86, -84.89 93.51 01/22/2022 17:16:54 73.84, -84.92 93.49 2.20 14
9 01/22/2022 18:06:17 -74.43, 81.43 85.89 01/22/2022 18:07:24 -74.43, 83.86 85.99 72.58 67
10 01/25/2022 12:01:25 -73.82, 174.02 87.21 01/25/2022 12:00:35 -73.79, 174.03 87.23 3.11 50
11 01/25/2022 12:50:53 73.87, -18.45 92.84 01/25/2022 12:51:13 73.87, -18.46 92.84 0.35 20
12 01/28/2022 07:35:39 -73.84,-119.57 87.90 01/28/2022 07:34:55 -73.81,-119.51 87.92 3.24 44
13 01/28/2022 08:25:07 73.89, 47.95 92.15 01/28/2022 08:25:33 73.88, 47.99 92.14 1.37 26



Historial Predications of SNOs between AQUA and METOP-B
